Location: Burland Observatory
(39.4088°N, 105.4217°W)
Time: 21:25:34
(UTC-07:00)

SR - Pass Details

Date: 10 December 2019
Orbit: 574 x 882 km, 66.7° (Epoch: 26 January)

Event Time Altitude Azimuth Distance (km) Brightness Sun altitude
Rises 09:34:33 0° 216° (SW) 3,206 ? 19.6°
Reaches altitude 10° 09:36:53 10° 219° (SW) 2,328 ? 19.9°
Maximum altitude 09:42:15 66° 301° (WNW) 900 ? 20.4°
Drops below altitude 10° 09:48:02 10° 24° (NNE) 2,503 ? 21.0°
Sets 09:50:37 0° 27° (NNE) 3,465 ? 21.3°
